Location: Sungai Bunut
(2.6333°N, 113.7333°E)
Time: 13:24:19
(UTC+00:00)

Vanguard 1 - Visible Passes

Search period start: 03 December 2023 00:00
Search period end: 13 December 2023 00:00
Orbit: 651 x 3828 km, 34.3° (Epoch: 01 December)

Date Brightness Start Highest point End Pass type
(mag) Time Alt. Az. Time Alt. Az. Time Alt. Az.
03 Dec 13.6 11:58:38 10° NW 12:12:32 24° N 12:21:48 19° NNE visible
03 Dec 13.9 14:28:43 10° NW 14:34:27 18° NNW 14:34:27 18° NNW visible
03 Dec 13.1 17:27:56 22° E 17:27:56 22° E 17:31:09 10° ESE visible
03 Dec 11.7 19:40:35 58° WSW 19:42:29 62° SW 19:52:00 10° SE visible
04 Dec 13.6 12:21:24 10° NW 12:35:47 23° N 12:40:55 21° NNE visible
04 Dec 14.0 14:50:10 10° NW 14:53:34 15° NNW 14:53:34 15° NNW visible
04 Dec 12.8 17:47:10 33° ESE 17:47:10 33° ESE 17:52:16 10° ESE visible
04 Dec 12.0 19:59:50 41° WSW 20:02:55 46° SW 20:11:59 10° SSE visible
05 Dec 13.4 10:14:48 10° WNW 10:25:56 26° NNW 10:42:08 10° NE visible
05 Dec 13.6 12:43:50 10° NW 12:59:05 23° N 13:00:02 23° N visible
05 Dec 14.1 15:11:20 10° NW 15:12:42 12° NW 15:12:42 12° NW visible
05 Dec 12.4 18:06:21 46° ESE 18:06:21 46° ESE 18:13:04 10° ESE visible
05 Dec 12.3 20:19:01 28° WSW 20:23:18 33° SW 20:31:41 10° SSE visible
06 Dec 13.5 10:37:16 10° NW 10:48:31 23° N 11:03:56 10° NE visible
06 Dec 13.6 13:05:49 10° NW 13:19:10 25° N 13:19:10 25° N visible
06 Dec13.916:12:50E16:12:50E15:31:50NWvisible
06 Dec 12.2 18:25:29 57° SE 18:25:29 57° SE 18:33:35 10° SE visible
06 Dec 12.6 20:38:08 18° WSW 20:43:45 23° SW 20:51:00 10° S visible
07 Dec 13.6 10:59:49 10° NW 11:11:22 21° N 11:25:41 11° NE visible
07 Dec 13.6 13:27:20 10° NW 13:38:20 25° N 13:38:20 25° N visible
07 Dec 13.7 16:31:54 11° ESE 16:31:54 11° ESE 16:32:17 10° ESE visible
07 Dec 12.1 18:44:32 58° S 18:44:32 58° S 18:53:52 10° SE visible
07 Dec 12.9 20:57:43 10° WSW 21:04:23 15° SW 21:09:34 10° S visible
08 Dec 13.6 11:22:13 10° NW 11:34:24 21° N 11:44:53 15° NE visible
08 Dec 13.6 13:48:29 10° NW 13:57:32 25° NNW 13:57:32 25° NNW visible
08 Dec 13.4 16:50:54 19° ESE 16:50:54 19° ESE 16:53:28 10° ESE visible
08 Dec 12.3 19:03:32 49° SW 19:03:32 49° SW 19:13:53 10° SSE visible
09 Dec 13.6 11:44:12 10° NW 11:57:31 22° N 12:04:06 19° NNE visible
09 Dec 13.7 14:09:23 10° NW 14:16:46 24° NNW 14:16:46 24° NNW visible
09 Dec 13.1 17:09:50 29° ESE 17:09:50 29° ESE 17:14:19 10° SE visible
09 Dec 12.6 19:22:29 36° SW 19:23:11 37° SW 19:33:42 10° SSE visible
10 Dec 13.5 12:05:43 10° NNW 12:20:30 24° NNE 12:23:23 24° NNE visible
10 Dec 13.8 14:30:10 10° NW 14:36:03 22° NNW 14:36:03 22° NNW visible
10 Dec 12.9 17:28:42 37° SE 17:28:42 37° SE 17:34:53 10° SE visible
10 Dec 12.9 19:41:20 26° SW 19:43:50 27° SW 19:53:13 10° S visible
11 Dec 13.4 12:26:51 10° NNW 12:42:44 28° NNE 12:42:44 28° NNE visible
11 Dec 13.8 14:50:55 10° NW 15:34:52 - ESE 14:55:25 20° NW visible
11 Dec 12.7 17:47:29 44° SSE 17:47:29 44° SSE 17:55:13 10° SE visible
11 Dec 13.1 20:00:06 16° WSW 20:04:39 19° SW 20:12:18 10° S visible
12 Dec 13.5 10:23:52 10° NNW 10:33:30 18° N 10:46:01 10° NE visible
12 Dec 13.3 12:47:40 10° NNW 13:02:10 32° NNE 13:02:10 32° NNE visible
12 Dec 13.8 15:11:44 10° NW 15:53:34 11° ESE 15:54:00 10° ESE visible
12 Dec 12.7 18:06:11 44° S 18:06:11 44° S 18:15:20 10° SSE visible
12 Dec 13.3 20:20:27 10° WSW 20:25:46 12° SW 20:30:15 10° SSW visible
